Location: Fort Wayne
(41.1310°N, 85.1290°W)
Time: 07:24:17
(UTC-05:00)

COSMOS 2428 - Visible Passes

Search period start: 27 January 2015 00:00
Search period end: 06 February 2015 00:00
Orbit: 844 x 857 km, 71.0° (Epoch: 27 January)

Date Brightness Start Highest point End Pass type
(mag) Time Alt. Az. Time Alt. Az. Time Alt. Az.
27 Jan 5.3 06:21:51 10° NNE 06:24:02 12° NE 06:26:28 10° ENE visible
28 Jan 5.3 06:09:30 10° NNE 06:11:41 12° NE 06:14:06 10° ENE visible
29 Jan 5.3 05:57:11 10° NNE 05:59:20 12° NE 06:01:44 10° ENE visible
30 Jan 5.3 05:44:51 10° NNE 05:46:59 12° NE 05:49:23 10° ENE visible
31 Jan 5.3 05:32:31 10° NNE 05:34:38 12° NE 05:37:01 10° ENE visible
31 Jan 3.1 07:14:25 10° NNW 07:20:06 70° ENE 07:25:44 10° SSE visible
01 Feb 5.4 05:20:10 10° NNE 05:22:17 12° NE 05:24:39 10° ENE visible
01 Feb 3.0 07:02:04 10° NNW 07:07:45 70° ENE 07:13:23 10° SSE visible
02 Feb 5.4 05:07:50 10° NNE 05:09:56 12° NE 05:12:17 10° ENE visible
02 Feb 3.0 06:49:43 10° NNW 06:55:24 70° ENE 07:01:02 10° SSE visible
03 Feb 5.4 04:55:30 10° NNE 04:57:34 12° NE 04:59:55 10° ENE visible
03 Feb 3.0 06:37:22 10° NNW 06:43:03 70° ENE 06:48:41 10° SSE visible
04 Feb 5.4 04:43:10 10° NNE 04:45:14 12° NE 04:47:33 10° ENE visible
04 Feb 3.0 06:25:02 10° NNW 06:30:42 69° ENE 06:36:20 10° SSE visible
04 Feb 4.6 19:35:33 10° SE 19:36:34 14° SE 19:36:34 14° SE visible
04 Feb 5.0 21:17:43 10° SW 21:18:40 15° SW 21:18:40 15° SW visible
05 Feb 5.4 04:30:50 10° NNE 04:32:53 12° NE 04:35:11 10° ENE visible
05 Feb 3.0 06:12:41 10° NNW 06:18:21 69° ENE 06:23:59 10° SSE visible
05 Feb 4.1 19:23:12 10° SE 19:26:04 19° ESE 19:26:04 19° ESE visible
05 Feb 4.2 21:05:23 10° SW 21:08:11 29° SW 21:08:11 29° SW visible
